Regional Weather Roundup
Issued by NWS Little Rock, AR

Home | Current Version | Previous Version | Text Only | Print | Product List | Glossary Off
Versions: 1 2 3 4 5 6 7 8 9 10 11 12 13 14 15 16 17 18 19 20 21 22 23 24 25 26 27 28 29 30 31 32 33 34 35 36 37 38 39 40 41 42 43 44 45 46 47 48 49 50

000
ASUS44 KLZK 270705
RWRLZK

WEATHER ROUNDUP FOR ARKANSAS
NATIONAL WEATHER SERVICE LITTLE ROCK AR
200 AM CDT THU AUG 27 2015

NOTE: "FAIR" INDICATES FEW OR NO CLOUDS BELOW 12,000 FEET WITH NO
SIGNIFICANT WEATHER AND/OR OBSTRUCTIONS TO VISIBILITY.

ARZ001-003-010-029-270800-
NORTHWEST ARKANSAS

CITY           SKY/WX    TMP DP  RH WIND       PRES   REMARKS
FAYETTEVILLE   CLEAR     60  60 100 CALM      30.12F
FORT SMITH     CLEAR     69  64  84 E3        30.07F
HARRISON       CLEAR     63  61  93 CALM      30.14F
BENTONVILLE    CLEAR     64  61  88 CALM      30.13S
ROGERS         CLEAR     67  66  97 SE5       30.13F
SILOAM SPGS    CLEAR     64  57  77 E3        30.09F
HIGHFILL       CLEAR     64  61  90 CALM      30.12F
$$

ARZ004-005-016-270800-
NORTH CENTRAL ARKANSAS

CITY           SKY/WX    TMP DP  RH WIND       PRES   REMARKS
BATESVILLE     CLEAR     61  57  88 CALM      30.12S
FLIPPIN        CLEAR     63  57  82 CALM      30.11S
MTN HOME       CLEAR     63  57  81 NE3       30.12F
$$

ARZ040-041-270800-
WEST CENTRAL ARKANSAS

CITY           SKY/WX    TMP DP  RH WIND       PRES   REMARKS
MENA           CLEAR     63  61  94 CALM      30.11S
MOUNT IDA      CLEAR     63  61  93 CALM      30.08S
$$

ARZ009-017-025-026-028-270800-
NORTHEAST ARKANSAS

CITY           SKY/WX    TMP DP  RH WIND       PRES   REMARKS
JONESBORO        N/A     60  57  89 NE5       30.10S
NEWPORT        CLEAR     62  60  93 N6        30.12F
WALNUT RIDGE   CLEAR     61  55  82 N6        30.12S
BLYTHEVILLE    CLEAR     58  57  97 N5        30.11R
$$

ARZ022-023-033-042-044-270800-
CENTRAL ARKANSAS

CITY           SKY/WX    TMP DP  RH WIND       PRES   REMARKS
LITTLE ROCK    CLEAR     68  61  78 CALM      30.09S
N LITTLE ROCK    N/A     69  61  77 E6        30.09S
JACKSONVILLE   CLEAR     64  60  90 NE2       30.09S
SEARCY         CLEAR     63  60  90 N3        30.11F
HOT SPRINGS    CLEAR     71  61  70 E5        30.09S
RUSSELLVILLE   CLEAR     67  65  93 CALM      30.09S
$$

ARZ036-270800-
EAST ARKANSAS

CITY           SKY/WX    TMP DP  RH WIND       PRES   REMARKS
WEST MEMPHIS   CLEAR     64  59  83 NE5       30.08S
$$

ARZ050-053-066-070-073-270800-
SOUTHWEST ARKANSAS

CITY           SKY/WX    TMP DP  RH WIND       PRES   REMARKS
ARKADELPHIA    FAIR      64  63  97 CALM      30.08F
CAMDEN         CLEAR     63  61  94 CALM      30.07S
TEXARKANA      CLEAR     68  63  84 CALM      30.06F
EL DORADO      CLEAR     64  61  90 CALM      30.07F
$$

ARZ056-057-069-270800-
SOUTHEAST ARKANSAS

CITY           SKY/WX    TMP DP  RH WIND       PRES   REMARKS
PINE BLUFF     CLEAR     64  60  87 CALM      30.08S
STUTTGART      CLEAR     63  57  82 N8        30.09S
MONTICELLO     CLEAR     63  61  93 CALM      30.08R

$$





USA.gov is the U.S. government's official web portal to all federal, state and local government web resources and services.